| time (UTC) | temp F | wind direction | speed MPH | gust MPH | rain 1hr in | rain 24hr in | rain mn in | humidity % | barometer mb |
| 20260831013517 | 76 | 152 | 0.0 | 0.0 | 0.00 | 0.00 | 0.00 | 85 | 1020.1 |
| 20260831013016 | 76 | 152 | 0.0 | 0.0 | 0.00 | 0.00 | 0.00 | 86 | 1020.1 |
| 20260831012518 | 76 | 152 | 0.0 | 0.0 | 0.00 | 0.00 | 0.00 | 85 | 1020.1 |
| 20260831012018 | 76 | 152 | 0.0 | 0.0 | 0.00 | 0.00 | 0.00 | 85 | 1020.2 |
| 20260831011529 | 76 | 152 | 0.0 | 0.0 | 0.00 | 0.00 | 0.00 | 85 | 1020.2 |
| 20260831011018 | 76 | 152 | 0.0 | 0.0 | 0.00 | 0.00 | 0.00 | 85 | 1020.1 |
| 20260831010519 | 76 | 152 | 0.0 | 0.0 | 0.00 | 0.00 | 0.00 | 85 | 1020.1 |
| 20260831010020 | 76 | 152 | 0.0 | 0.0 | 0.00 | 0.00 | 0.00 | 85 | 1020.0 |
| 20260831005514 | 77 | 152 | 0.0 | 0.0 | 0.00 | 0.00 | 0.00 | 84 | 1020.0 |
| 20260831005018 | 77 | 152 | 0.0 | 0.0 | 0.00 | 0.00 | 0.00 | 84 | 1019.9 |
| 20260831004534 | 77 | 152 | 0.0 | 0.0 | 0.00 | 0.00 | 0.00 | 83 | 1019.8 |
| 20260831004002 | 77 | 152 | 0.0 | 0.0 | 0.00 | 0.00 | 0.00 | 83 | 1019.6 |
| 20260831003510 | 77 | 152 | 0.0 | 0.0 | 0.00 | 0.00 | 0.00 | 82 | 1019.6 |
| 20260831003006 | 78 | 152 | 0.0 | 1.0 | 0.00 | 0.00 | 0.00 | 82 | 1019.6 |
| 20260831002502 | 78 | 152 | 0.0 | 1.0 | 0.00 | 0.00 | 0.00 | 82 | 1019.4 |
| 20260831002007 | 78 | 152 | 0.0 | 0.0 | 0.00 | 0.00 | 0.00 | 81 | 1019.4 |
| 20260831001508 | 79 | 152 | 0.0 | 0.0 | 0.00 | 0.00 | 0.00 | 81 | 1019.4 |
| 20260831001005 | 79 | 152 | 0.0 | 0.0 | 0.00 | 0.00 | 0.00 | 81 | 1019.3 |
| 20260831000511 | 79 | 152 | 0.0 | 0.0 | 0.00 | 0.00 | 0.00 | 80 | 1019.2 |
| 20260831000006 | 80 | 152 | 0.0 | 0.0 | 0.00 | 0.00 | 0.00 | 80 | 1019.3 |
| 20260830235504 | 80 | 152 | 0.0 | 0.0 | 0.00 | 0.00 | 0.00 | 79 | 1019.4 |
| 20260830235013 | 81 | 152 | 0.0 | 0.0 | 0.00 | 0.00 | 0.00 | 78 | 1019.3 |
| 20260830234505 | 81 | 152 | 0.0 | 0.0 | 0.00 | 0.00 | 0.00 | 77 | 1019.3 |
| 20260830234004 | 82 | 152 | 0.0 | 0.0 | 0.00 | 0.00 | 0.00 | 77 | 1019.3 |
| 20260830233513 | 82 | 152 | 0.0 | 0.0 | 0.00 | 0.00 | 0.00 | 76 | 1019.4 |
| 20260830233007 | 83 | 152 | 0.0 | 0.0 | 0.00 | 0.00 | 0.00 | 74 | 1019.4 |
| 20260830232506 | 83 | 152 | 0.0 | 0.0 | 0.00 | 0.00 | 0.00 | 73 | 1019.4 |
| 20260830232010 | 84 | 152 | 0.0 | 1.0 | 0.00 | 0.00 | 0.00 | 72 | 1019.4 |
| 20260830231503 | 84 | 152 | 0.0 | 2.0 | 0.00 | 0.00 | 0.00 | 70 | 1019.5 |
| 20260830231008 | 85 | 152 | 0.0 | 2.0 | 0.00 | 0.00 | 0.00 | 69 | 1019.5 |
| 20260830230512 | 85 | 152 | 0.0 | 2.0 | 0.00 | 0.00 | 0.00 | 67 | 1019.5 |
| 20260830230004 | 85 | 121 | 0.0 | 2.0 | 0.00 | 0.00 | 0.00 | 67 | 1019.5 |
| 20260830225508 | 85 | 111 | 0.0 | 2.0 | 0.00 | 0.00 | 0.00 | 67 | 1019.4 |
| 20260830225017 | 85 | 165 | 0.0 | 2.0 | 0.00 | 0.00 | 0.00 | 67 | 1019.4 |
| 20260830224504 | 86 | 115 | 0.0 | 2.0 | 0.00 | 0.00 | 0.00 | 67 | 1019.4 |
| 20260830224008 | 86 | 140 | 0.0 | 2.0 | 0.00 | 0.00 | 0.00 | 66 | 1019.3 |
| 20260830223511 | 86 | 126 | 0.0 | 4.0 | 0.00 | 0.00 | 0.00 | 65 | 1019.4 |
| 20260830223007 | 86 | 148 | 0.0 | 4.0 | 0.00 | 0.00 | 0.00 | 65 | 1019.3 |
| 20260830222508 | 86 | 175 | 1.0 | 3.0 | 0.00 | 0.00 | 0.00 | 65 | 1019.4 |
| 20260830222011 | 86 | 111 | 1.0 | 4.0 | 0.00 | 0.00 | 0.00 | 64 | 1019.3 |
| 20260830221503 | 86 | 175 | 1.0 | 4.0 | 0.00 | 0.00 | 0.00 | 63 | 1019.4 |
| 20260830221006 | 87 | 110 | 1.0 | 2.0 | 0.00 | 0.00 | 0.00 | 65 | 1019.3 |
| 20260830220512 | 87 | 350 | 0.0 | 3.0 | 0.00 | 0.00 | 0.00 | 64 | 1019.4 |
| 20260830220014 | 87 | 90 | 0.0 | 7.0 | 0.00 | 0.00 | 0.00 | 63 | 1019.4 |
| 20260830215508 | 87 | 178 | 1.0 | 7.0 | 0.00 | 0.00 | 0.00 | 63 | 1019.4 |
| 20260830215016 | 87 | 82 | 2.0 | 6.0 | 0.00 | 0.00 | 0.00 | 63 | 1019.4 |
| 20260830214508 | 87 | 51 | 0.0 | 4.0 | 0.00 | 0.00 | 0.00 | 62 | 1019.3 |
| 20260830214010 | 87 | 124 | 1.0 | 4.0 | 0.00 | 0.00 | 0.00 | 62 | 1019.4 |
| 20260830213513 | 87 | 103 | 0.0 | 4.0 | 0.00 | 0.00 | 0.00 | 63 | 1019.3 |
| 20260830213006 | 87 | 132 | 1.0 | 3.0 | 0.00 | 0.00 | 0.00 | 62 | 1019.3 |
| 20260830212508 | 87 | 32 | 0.0 | 5.0 | 0.00 | 0.00 | 0.00 | 63 | 1019.2 |
| 20260830212016 | 87 | 205 | 0.0 | 5.0 | 0.00 | 0.00 | 0.00 | 62 | 1019.2 |
| 20260830211509 | 87 | 63 | 0.0 | 5.0 | 0.00 | 0.00 | 0.00 | 62 | 1019.1 |
| 20260830211012 | 87 | 198 | 0.0 | 7.0 | 0.00 | 0.00 | 0.00 | 62 | 1019.1 |
| 20260830210516 | 88 | 139 | 2.0 | 7.0 | 0.00 | 0.00 | 0.00 | 61 | 1019.1 |
| 20260830210019 | 88 | 176 | 1.0 | 4.0 | 0.00 | 0.00 | 0.00 | 62 | 1019.3 |
| 20260830205513 | 88 | 355 | 0.0 | 8.0 | 0.00 | 0.00 | 0.00 | 60 | 1019.2 |
| 20260830205013 | 88 | 227 | 0.0 | 8.0 | 0.00 | 0.00 | 0.00 | 63 | 1019.3 |
| 20260830204508 | 88 | 110 | 2.0 | 8.0 | 0.00 | 0.00 | 0.00 | 61 | 1019.3 |
| 20260830204013 | 88 | 154 | 1.0 | 6.0 | 0.00 | 0.00 | 0.00 | 61 | 1019.3 |
| 20260830203514 | 88 | 206 | 2.0 | 5.0 | 0.00 | 0.00 | 0.00 | 61 | 1019.4 |
| 20260830203008 | 88 | 117 | 1.0 | 5.0 | 0.00 | 0.00 | 0.00 | 61 | 1019.4 |
| 20260830202512 | 89 | 153 | 1.0 | 5.0 | 0.00 | 0.00 | 0.00 | 61 | 1019.6 |
| 20260830202017 | 89 | 101 | 1.0 | 3.0 | 0.00 | 0.00 | 0.00 | 60 | 1019.6 |
| 20260830201512 | 89 | 165 | 0.0 | 3.0 | 0.00 | 0.00 | 0.00 | 62 | 1019.7 |
| 20260830201011 | 89 | 173 | 1.0 | 3.0 | 0.00 | 0.00 | 0.00 | 61 | 1019.7 |
| 20260830200516 | 89 | 123 | 1.0 | 3.0 | 0.00 | 0.00 | 0.00 | 63 | 1019.7 |
| 20260830200010 | 88 | 144 | 0.0 | 3.0 | 0.00 | 0.00 | 0.00 | 65 | 1019.7 |
| 20260830195511 | 88 | 60 | 1.0 | 3.0 | 0.00 | 0.00 | 0.00 | 63 | 1019.9 |
| 20260830195017 | 88 | 24 | 0.0 | 4.0 | 0.00 | 0.00 | 0.00 | 62 | 1020.0 |
| 20260830194513 | 88 | 28 | 1.0 | 4.0 | 0.00 | 0.00 | 0.00 | 61 | 1020.0 |
| 20260830194015 | 88 | 337 | 2.0 | 4.0 | 0.00 | 0.00 | 0.00 | 61 | 1020.1 |
| 20260830193513 | 89 | 86 | 2.0 | 4.0 | 0.00 | 0.00 | 0.00 | 63 | 1020.2 |
| 20260830193013 | 88 | 18 | 1.0 | 5.0 | 0.00 | 0.00 | 0.00 | 62 | 1020.3 |
| 20260830192513 | 88 | 28 | 1.0 | 5.0 | 0.00 | 0.00 | 0.00 | 63 | 1020.6 |
| 20260830192004 | 88 | 355 | 1.0 | 4.0 | 0.00 | 0.00 | 0.00 | 64 | 1020.6 |
| 20260830191553 | 88 | 352 | 2.0 | 4.0 | 0.00 | 0.00 | 0.00 | 63 | 1020.6 |
| 20260830191013 | 87 | 355 | 2.0 | 4.0 | 0.00 | 0.00 | 0.00 | 65 | 1020.7 |
| 20260830190503 | 87 | 5 | 0.0 | 3.0 | 0.00 | 0.00 | 0.00 | 65 | 1020.8 |
| 20260830190019 | 88 | 175 | 1.0 | 4.0 | 0.00 | 0.00 | 0.00 | 63 | 1020.9 |
| 20260830185516 | 87 | 199 | 1.0 | 6.0 | 0.00 | 0.00 | 0.00 | 66 | 1021.0 |
| 20260830185013 | 88 | 303 | 2.0 | 6.0 | 0.00 | 0.00 | 0.00 | 63 | 1020.9 |
| 20260830184524 | 88 | 325 | 1.0 | 6.0 | 0.00 | 0.00 | 0.00 | 65 | 1021.0 |
| 20260830184017 | 88 | 5 | 0.0 | 4.0 | 0.00 | 0.00 | 0.00 | 67 | 1021.1 |
| 20260830183506 | 87 | 126 | 1.0 | 3.0 | 0.00 | 0.00 | 0.00 | 65 | 1021.2 |
| 20260830183020 | 88 | 122 | 0.0 | 7.0 | 0.00 | 0.00 | 0.00 | 69 | 1021.3 |
| 20260830182519 | 88 | 17 | 1.0 | 7.0 | 0.00 | 0.00 | 0.00 | 66 | 1021.4 |
| 20260830182010 | 87 | 338 | 1.0 | 6.0 | 0.00 | 0.00 | 0.00 | 65 | 1021.5 |
| 20260830181520 | 87 | 350 | 1.0 | 6.0 | 0.00 | 0.00 | 0.00 | 66 | 1021.5 |
| 20260830181014 | 87 | 146 | 2.0 | 6.0 | 0.00 | 0.00 | 0.00 | 65 | 1021.6 |
| 20260830180505 | 87 | 324 | 0.0 | 4.0 | 0.00 | 0.00 | 0.00 | 64 | 1021.8 |
| 20260830180033 | 86 | 61 | 1.0 | 3.0 | 0.00 | 0.00 | 0.00 | 69 | 1021.8 |
| 20260830175518 | 86 | 27 | 0.0 | 5.0 | 0.00 | 0.00 | 0.00 | 67 | 1021.9 |
| 20260830175010 | 87 | 121 | 1.0 | 5.0 | 0.00 | 0.00 | 0.00 | 66 | 1022.0 |
| 20260830174530 | 86 | 141 | 1.0 | 4.0 | 0.00 | 0.00 | 0.00 | 69 | 1022.0 |
| 20260830174018 | 86 | 10 | 1.0 | 4.0 | 0.00 | 0.00 | 0.00 | 67 | 1022.1 |
| 20260830173509 | 85 | 339 | 1.0 | 4.0 | 0.00 | 0.00 | 0.00 | 68 | 1022.1 |
| 20260830173026 | 86 | 116 | 0.0 | 5.0 | 0.00 | 0.00 | 0.00 | 67 | 1022.2 |
| 20260830172519 | 85 | 142 | 2.0 | 5.0 | 0.00 | 0.00 | 0.00 | 75 | 1022.2 |
| 20260830172008 | 83 | 342 | 2.0 | 5.0 | 0.00 | 0.00 | 0.00 | 72 | 1022.3 |
| 20260830171523 | 84 | 106 | 1.0 | 4.0 | 0.00 | 0.00 | 0.00 | 70 | 1022.3 |
| 20260830171015 | 84 | 352 | 1.0 | 6.0 | 0.00 | 0.00 | 0.00 | 71 | 1022.4 |
| 20260830170512 | 84 | 321 | 3.0 | 6.0 | 0.00 | 0.00 | 0.00 | 71 | 1022.3 |
| 20260830170025 | 84 | 39 | 3.0 | 6.0 | 0.00 | 0.00 | 0.00 | 71 | 1022.4 |
| 20260830165519 | 85 | 147 | 0.0 | 4.0 | 0.00 | 0.00 | 0.00 | 70 | 1022.5 |
| 20260830165019 | 85 | 95 | 1.0 | 4.0 | 0.00 | 0.00 | 0.00 | 70 | 1022.5 |
| 20260830164527 | 85 | 153 | 1.0 | 6.0 | 0.00 | 0.00 | 0.00 | 68 | 1022.5 |
| 20260830164017 | 84 | 98 | 2.0 | 6.0 | 0.00 | 0.00 | 0.00 | 71 | 1022.5 |
| 20260830163512 | 84 | 153 | 1.0 | 5.0 | 0.00 | 0.00 | 0.00 | 71 | 1022.6 |
| 20260830163037 | 83 | 355 | 2.0 | 6.0 | 0.00 | 0.00 | 0.00 | 72 | 1022.6 |
| 20260830162515 | 84 | 121 | 0.0 | 6.0 | 0.00 | 0.00 | 0.00 | 70 | 1022.7 |
| 20260830162011 | 83 | 172 | 2.0 | 5.0 | 0.00 | 0.00 | 0.00 | 71 | 1022.7 |
| 20260830161527 | 82 | 188 | 2.0 | 4.0 | 0.00 | 0.00 | 0.00 | 75 | 1022.7 |
| 20260830161024 | 82 | 360 | 0.0 | 4.0 | 0.00 | 0.00 | 0.00 | 76 | 1022.7 |
| 20260830160511 | 81 | 127 | 1.0 | 4.0 | 0.00 | 0.00 | 0.00 | 77 | 1022.8 |
| 20260830160038 | 81 | 40 | 0.0 | 5.0 | 0.00 | 0.00 | 0.00 | 77 | 1022.9 |
| 20260830155521 | 81 | 84 | 0.0 | 6.0 | 0.00 | 0.00 | 0.00 | 75 | 1023.0 |
| 20260830155015 | 82 | 351 | 2.0 | 6.0 | 0.00 | 0.00 | 0.00 | 75 | 1023.0 |
| 20260830154529 | 83 | 326 | 0.0 | 3.0 | 0.00 | 0.00 | 0.00 | 71 | 1023.0 |
| 20260830154004 | 81 | 101 | 1.0 | 4.0 | 0.00 | 0.00 | 0.00 | 74 | 1023.1 |
| 20260830153504 | 81 | 111 | 2.0 | 6.0 | 0.00 | 0.00 | 0.00 | 75 | 1023.1 |
| 20260830153004 | 81 | 168 | 3.0 | 6.0 | 0.00 | 0.00 | 0.00 | 74 | 1023.1 |
| 20260830152507 | 81 | 109 | 0.0 | 5.0 | 0.00 | 0.00 | 0.00 | 75 | 1023.1 |
| 20260830152003 | 81 | 105 | 0.0 | 6.0 | 0.00 | 0.00 | 0.00 | 77 | 1023.1 |
| 20260830151503 | 81 | 120 | 2.0 | 6.0 | 0.00 | 0.00 | 0.00 | 75 | 1023.2 |
| 20260830151003 | 82 | 349 | 1.0 | 6.0 | 0.00 | 0.00 | 0.00 | 78 | 1023.1 |
| 20260830150503 | 82 | 143 | 0.0 | 6.0 | 0.00 | 0.00 | 0.00 | 78 | 1023.0 |
| 20260830150016 | 82 | 176 | 1.0 | 4.0 | 0.00 | 0.00 | 0.00 | 75 | 1023.0 |
| 20260830145504 | 80 | 117 | 2.0 | 5.0 | 0.00 | 0.00 | 0.00 | 77 | 1023.1 |
| 20260830145003 | 80 | 159 | 2.0 | 5.0 | 0.00 | 0.00 | 0.00 | 78 | 1023.1 |
| 20260830144513 | 80 | 159 | 2.0 | 6.0 | 0.00 | 0.00 | 0.00 | 79 | 1023.2 |
| 20260830144003 | 80 | 100 | 2.0 | 6.0 | 0.00 | 0.00 | 0.00 | 78 | 1023.2 |
| 20260830143503 | 81 | 138 | 3.0 | 6.0 | 0.00 | 0.00 | 0.00 | 79 | 1023.1 |
| 20260830143005 | 81 | 112 | 1.0 | 3.0 | 0.00 | 0.00 | 0.00 | 82 | 1023.2 |
| 20260830142504 | 80 | 106 | 0.0 | 5.0 | 0.00 | 0.00 | 0.00 | 81 | 1023.1 |
| 20260830142004 | 80 | 136 | 2.0 | 5.0 | 0.00 | 0.00 | 0.00 | 80 | 1023.1 |
| 20260830141503 | 81 | 161 | 1.0 | 5.0 | 0.00 | 0.00 | 0.00 | 81 | 1023.2 |
| 20260830141003 | 79 | 155 | 1.0 | 5.0 | 0.00 | 0.00 | 0.00 | 85 | 1023.1 |
| 20260830140502 | 78 | 101 | 0.0 | 6.0 | 0.00 | 0.00 | 0.00 | 85 | 1023.2 |
| 20260830140003 | 78 | 119 | 2.0 | 6.0 | 0.00 | 0.00 | 0.00 | 87 | 1023.4 |
| 20260830135505 | 77 | 167 | 2.0 | 5.0 | 0.00 | 0.00 | 0.00 | 87 | 1023.5 |
| 20260830135003 | 77 | 162 | 1.0 | 5.0 | 0.00 | 0.00 | 0.00 | 87 | 1023.5 |
| 20260830134505 | 77 | 146 | 1.0 | 3.0 | 0.00 | 0.00 | 0.00 | 90 | 1023.6 |
| 20260830134003 | 76 | 146 | 0.0 | 3.0 | 0.00 | 0.00 | 0.00 | 92 | 1023.7 |
| 20260830133504 | 75 | 126 | 0.0 | 4.0 | 0.00 | 0.00 | 0.00 | 94 | 1023.8 |
| 20260830133006 | 75 | 171 | 0.0 | 4.0 | 0.00 | 0.00 | 0.00 | 95 | 1023.8 |
| 20260830132505 | 74 | 137 | 0.0 | 2.0 | 0.00 | 0.00 | 0.00 | 95 | 1023.9 |
| 20260830132004 | 74 | 212 | 0.0 | 3.0 | 0.00 | 0.00 | 0.00 | 96 | 1023.8 |
| 20260830131506 | 74 | 205 | 0.0 | 3.0 | 0.00 | 0.00 | 0.00 | 96 | 1023.9 |
| 20260830131004 | 73 | 188 | 0.0 | 1.0 | 0.00 | 0.00 | 0.00 | 97 | 1023.9 |
| 20260830130504 | 73 | 188 | 0.0 | 1.0 | 0.00 | 0.00 | 0.00 | 96 | 1023.9 |
| 20260830130006 | 73 | 133 | 0.0 | 1.0 | 0.00 | 0.00 | 0.00 | 97 | 1024.0 |
| 20260830125506 | 73 | 134 | 0.0 | 2.0 | 0.00 | 0.00 | 0.00 | 97 | 1024.0 |
| 20260830125003 | 73 | 134 | 0.0 | 2.0 | 0.00 | 0.00 | 0.00 | 97 | 1024.1 |
| 20260830124507 | 72 | 128 | 0.0 | 1.0 | 0.00 | 0.00 | 0.00 | 96 | 1024.1 |
| 20260830124006 | 72 | 144 | 0.0 | 0.0 | 0.00 | 0.00 | 0.00 | 96 | 1024.2 |
| 20260830123503 | 72 | 144 | 0.0 | 0.0 | 0.00 | 0.00 | 0.00 | 97 | 1024.3 |
| 20260830123009 | 72 | 144 | 0.0 | 0.0 | 0.00 | 0.00 | 0.00 | 97 | 1024.2 |
| 20260830122503 | 72 | 144 | 0.0 | 0.0 | 0.00 | 0.00 | 0.00 | 97 | 1024.2 |
| 20260830122008 | 72 | 144 | 0.0 | 0.0 | 0.00 | 0.00 | 0.00 | 97 | 1024.2 |
| 20260830121508 | 72 | 144 | 0.0 | 1.0 | 0.00 | 0.00 | 0.00 | 97 | 1024.2 |
| 20260830121002 | 72 | 144 | 0.0 | 1.0 | 0.00 | 0.00 | 0.00 | 97 | 1024.2 |
| 20260830120503 | 72 | 144 | 0.0 | 1.0 | 0.00 | 0.00 | 0.00 | 97 | 1024.1 |
| 20260830120006 | 72 | 144 | 0.0 | 2.0 | 0.00 | 0.00 | 0.00 | 97 | 1024.1 |
| 20260830115502 | 71 | 152 | 0.0 | 4.0 | 0.00 | 0.00 | 0.00 | 97 | 1024.1 |
| 20260830115007 | 71 | 152 | 0.0 | 4.0 | 0.00 | 0.00 | 0.00 | 97 | 1024.0 |
| 20260830114509 | 71 | 130 | 0.0 | 0.0 | 0.00 | 0.00 | 0.00 | 97 | 1024.0 |
| 20260830114003 | 71 | 123 | 0.0 | 0.0 | 0.00 | 0.00 | 0.00 | 96 | 1023.9 |
| 20260830113506 | 71 | 123 | 0.0 | 0.0 | 0.00 | 0.00 | 0.00 | 96 | 1023.9 |
| 20260830113016 | 71 | 159 | 0.0 | 0.0 | 0.00 | 0.00 | 0.00 | 97 | 1023.8 |
| 20260830112507 | 71 | 159 | 0.0 | 0.0 | 0.00 | 0.00 | 0.00 | 97 | 1023.8 |
| 20260830112012 | 71 | 159 | 0.0 | 0.0 | 0.00 | 0.00 | 0.00 | 97 | 1023.8 |
| 20260830111508 | 71 | 159 | 0.0 | 0.0 | 0.00 | 0.00 | 0.00 | 97 | 1023.8 |
| 20260830111004 | 70 | 159 | 0.0 | 0.0 | 0.00 | 0.00 | 0.00 | 96 | 1023.8 |
| 20260830110507 | 70 | 159 | 0.0 | 0.0 | 0.00 | 0.00 | 0.00 | 96 | 1023.8 |
| 20260830110012 | 70 | 159 | 0.0 | 0.0 | 0.00 | 0.00 | 0.00 | 96 | 1023.7 |
| 20260830105506 | 70 | 159 | 0.0 | 0.0 | 0.00 | 0.00 | 0.00 | 96 | 1023.7 |
| 20260830105006 | 70 | 159 | 0.0 | 0.0 | 0.00 | 0.00 | 0.00 | 96 | 1023.6 |
| 20260830104507 | 70 | 159 | 0.0 | 0.0 | 0.00 | 0.00 | 0.00 | 96 | 1023.6 |
| 20260830104002 | 70 | 159 | 0.0 | 0.0 | 0.00 | 0.00 | 0.00 | 96 | 1023.6 |
| 20260830103508 | 70 | 159 | 0.0 | 0.0 | 0.00 | 0.00 | 0.00 | 96 | 1023.6 |
| 20260830103010 | 70 | 159 | 0.0 | 0.0 | 0.00 | 0.00 | 0.00 | 96 | 1023.5 |
| 20260830102505 | 70 | 159 | 0.0 | 0.0 | 0.00 | 0.00 | 0.00 | 96 | 1023.5 |
| 20260830102010 | 70 | 159 | 0.0 | 0.0 | 0.00 | 0.00 | 0.00 | 96 | 1023.4 |
| 20260830101510 | 69 | 159 | 0.0 | 0.0 | 0.00 | 0.00 | 0.00 | 96 | 1023.4 |
| 20260830101006 | 69 | 159 | 0.0 | 0.0 | 0.00 | 0.00 | 0.00 | 96 | 1023.4 |
| 20260830100509 | 69 | 159 | 0.0 | 0.0 | 0.00 | 0.00 | 0.00 | 96 | 1023.3 |
| 20260830100013 | 69 | 159 | 0.0 | 0.0 | 0.00 | 0.00 | 0.00 | 96 | 1023.2 |
| 20260830095510 | 69 | 158 | 0.0 | 0.0 | 0.00 | 0.00 | 0.00 | 96 | 1023.2 |
| 20260830095006 | 69 | 158 | 0.0 | 0.0 | 0.00 | 0.00 | 0.00 | 96 | 1023.1 |
| 20260830094513 | 69 | 158 | 0.0 | 0.0 | 0.00 | 0.00 | 0.00 | 96 | 1023.2 |
| 20260830094007 | 69 | 158 | 0.0 | 0.0 | 0.00 | 0.00 | 0.00 | 96 | 1023.2 |
| 20260830093513 | 69 | 158 | 0.0 | 0.0 | 0.00 | 0.00 | 0.00 | 96 | 1023.1 |
| 20260830093023 | 69 | 158 | 0.0 | 0.0 | 0.00 | 0.00 | 0.00 | 96 | 1023.1 |
| 20260830092508 | 69 | 158 | 0.0 | 0.0 | 0.00 | 0.00 | 0.00 | 96 | 1023.1 |
| 20260830092008 | 69 | 158 | 0.0 | 0.0 | 0.00 | 0.00 | 0.00 | 96 | 1023.2 |
| 20260830091518 | 69 | 158 | 0.0 | 0.0 | 0.00 | 0.00 | 0.00 | 96 | 1023.2 |
| 20260830091009 | 69 | 158 | 0.0 | 0.0 | 0.00 | 0.00 | 0.00 | 96 | 1023.1 |
| 20260830090507 | 69 | 158 | 0.0 | 0.0 | 0.00 | 0.00 | 0.00 | 96 | 1023.1 |
| 20260830090014 | 69 | 158 | 0.0 | 0.0 | 0.00 | 0.00 | 0.00 | 96 | 1023.1 |
| 20260830085508 | 69 | 158 | 0.0 | 0.0 | 0.00 | 0.00 | 0.00 | 96 | 1023.2 |
| 20260830085012 | 69 | 158 | 0.0 | 0.0 | 0.00 | 0.00 | 0.00 | 96 | 1023.2 |
| 20260830084506 | 69 | 158 | 0.0 | 0.0 | 0.00 | 0.00 | 0.00 | 96 | 1023.3 |
| 20260830084008 | 68 | 158 | 0.0 | 0.0 | 0.00 | 0.00 | 0.00 | 96 | 1023.2 |
| 20260830083512 | 68 | 158 | 0.0 | 0.0 | 0.00 | 0.00 | 0.00 | 96 | 1023.2 |
| 20260830083004 | 68 | 158 | 0.0 | 0.0 | 0.00 | 0.00 | 0.00 | 96 | 1023.2 |
| 20260830082510 | 68 | 158 | 0.0 | 0.0 | 0.00 | 0.00 | 0.00 | 96 | 1023.3 |
| 20260830082011 | 68 | 158 | 0.0 | 0.0 | 0.00 | 0.00 | 0.00 | 96 | 1023.4 |
| 20260830081517 | 68 | 158 | 0.0 | 0.0 | 0.00 | 0.00 | 0.00 | 96 | 1023.4 |
| 20260830081008 | 68 | 158 | 0.0 | 0.0 | 0.00 | 0.00 | 0.00 | 96 | 1023.4 |
| 20260830080513 | 68 | 158 | 0.0 | 0.0 | 0.00 | 0.00 | 0.00 | 95 | 1023.4 |
| 20260830080006 | 68 | 158 | 0.0 | 0.0 | 0.00 | 0.00 | 0.00 | 95 | 1023.4 |
| 20260830075509 | 68 | 158 | 0.0 | 0.0 | 0.00 | 0.00 | 0.00 | 95 | 1023.4 |
| 20260830075010 | 68 | 158 | 0.0 | 0.0 | 0.00 | 0.00 | 0.00 | 95 | 1023.5 |
| 20260830074503 | 68 | 158 | 0.0 | 0.0 | 0.00 | 0.00 | 0.00 | 95 | 1023.4 |
| 20260830074011 | 68 | 158 | 0.0 | 0.0 | 0.00 | 0.00 | 0.00 | 95 | 1023.4 |
| 20260830073511 | 68 | 158 | 0.0 | 0.0 | 0.00 | 0.00 | 0.00 | 95 | 1023.4 |
| 20260830073005 | 68 | 158 | 0.0 | 0.0 | 0.00 | 0.00 | 0.00 | 95 | 1023.5 |
| 20260830072512 | 68 | 158 | 0.0 | 0.0 | 0.00 | 0.00 | 0.00 | 95 | 1023.4 |
| 20260830072017 | 68 | 158 | 0.0 | 0.0 | 0.00 | 0.00 | 0.00 | 95 | 1023.4 |
| 20260830071508 | 68 | 158 | 0.0 | 0.0 | 0.00 | 0.00 | 0.00 | 95 | 1023.4 |
| 20260830071012 | 68 | 158 | 0.0 | 0.0 | 0.00 | 0.00 | 0.00 | 95 | 1023.4 |
| 20260830070512 | 69 | 158 | 0.0 | 0.0 | 0.00 | 0.00 | 0.00 | 95 | 1023.4 |
| 20260830070010 | 69 | 158 | 0.0 | 0.0 | 0.00 | 0.00 | 0.00 | 95 | 1023.4 |
| 20260830065512 | 69 | 158 | 0.0 | 0.0 | 0.00 | 0.00 | 0.00 | 95 | 1023.5 |
| 20260830065011 | 69 | 158 | 0.0 | 0.0 | 0.00 | 0.00 | 0.00 | 95 | 1023.6 |
| 20260830064512 | 69 | 158 | 0.0 | 0.0 | 0.00 | 0.00 | 0.00 | 95 | 1023.7 |
| 20260830064014 | 69 | 158 | 0.0 | 0.0 | 0.00 | 0.00 | 0.00 | 95 | 1023.7 |
| 20260830063514 | 69 | 158 | 0.0 | 0.0 | 0.00 | 0.00 | 0.00 | 95 | 1023.6 |
| 20260830063019 | 69 | 158 | 0.0 | 0.0 | 0.00 | 0.00 | 0.00 | 95 | 1023.6 |
| 20260830062514 | 69 | 158 | 0.0 | 0.0 | 0.00 | 0.00 | 0.00 | 95 | 1023.7 |
| 20260830062017 | 69 | 158 | 0.0 | 0.0 | 0.00 | 0.00 | 0.00 | 95 | 1023.7 |
| 20260830061518 | 69 | 158 | 0.0 | 0.0 | 0.00 | 0.00 | 0.00 | 95 | 1023.7 |
| 20260830061013 | 69 | 158 | 0.0 | 1.0 | 0.00 | 0.00 | 0.00 | 95 | 1023.7 |
| 20260830060513 | 69 | 158 | 0.0 | 2.0 | 0.00 | 0.00 | 0.00 | 95 | 1023.8 |
| 20260830060029 | 69 | 158 | 0.0 | 2.0 | 0.00 | 0.00 | 0.00 | 95 | 1023.8 |
| 20260830055520 | 69 | 118 | 0.0 | 1.0 | 0.00 | 0.00 | 0.00 | 95 | 1023.8 |
| 20260830055012 | 69 | 118 | 0.0 | 1.0 | 0.00 | 0.00 | 0.00 | 95 | 1023.8 |
| 20260830054513 | 69 | 130 | 0.0 | 0.0 | 0.00 | 0.00 | 0.00 | 95 | 1023.7 |
| 20260830054013 | 69 | 174 | 0.0 | 0.0 | 0.00 | 0.00 | 0.00 | 95 | 1023.6 |
| 20260830053513 | 69 | 174 | 0.0 | 0.0 | 0.00 | 0.00 | 0.00 | 95 | 1023.7 |
| 20260830053014 | 69 | 173 | 0.0 | 0.0 | 0.00 | 0.00 | 0.00 | 95 | 1023.7 |
| 20260830052514 | 69 | 174 | 0.0 | 0.0 | 0.00 | 0.00 | 0.00 | 94 | 1023.8 |
| 20260830052018 | 69 | 173 | 0.0 | 0.0 | 0.00 | 0.00 | 0.00 | 94 | 1023.8 |
| 20260830051517 | 69 | 173 | 0.0 | 0.0 | 0.00 | 0.00 | 0.00 | 94 | 1023.9 |
| 20260830051015 | 69 | 173 | 0.0 | 0.0 | 0.00 | 0.00 | 0.00 | 94 | 1023.9 |
| 20260830050515 | 69 | 173 | 0.0 | 0.0 | 0.00 | 0.00 | 0.00 | 94 | 1024.0 |
| 20260830050019 | 69 | 173 | 0.0 | 0.0 | 0.00 | 0.00 | 0.00 | 94 | 1024.0 |
| 20260830045512 | 70 | 173 | 0.0 | 0.0 | 0.00 | 0.00 | 0.00 | 94 | 1024.0 |
| 20260830045017 | 70 | 173 | 0.0 | 0.0 | 0.00 | 0.00 | 0.00 | 94 | 1024.0 |
| 20260830044528 | 70 | 173 | 0.0 | 0.0 | 0.00 | 0.00 | 0.00 | 94 | 1024.0 |
| 20260830044017 | 70 | 173 | 0.0 | 0.0 | 0.00 | 0.00 | 0.00 | 94 | 1024.0 |
| 20260830043517 | 70 | 173 | 0.0 | 0.0 | 0.00 | 0.00 | 0.00 | 94 | 1024.1 |
| 20260830043020 | 70 | 173 | 0.0 | 0.0 | 0.00 | 0.00 | 0.00 | 94 | 1024.1 |
| 20260830042516 | 70 | 173 | 0.0 | 0.0 | 0.00 | 0.00 | 0.00 | 94 | 1024.0 |
| 20260830042015 | 70 | 173 | 0.0 | 0.0 | 0.00 | 0.00 | 0.00 | 94 | 1023.9 |
| 20260830041542 | 70 | 173 | 0.0 | 0.0 | 0.00 | 0.00 | 0.00 | 93 | 1023.9 |
| 20260830041016 | 70 | 173 | 0.0 | 0.0 | 0.00 | 0.00 | 0.00 | 93 | 1023.9 |
| 20260830040516 | 70 | 173 | 0.0 | 0.0 | 0.00 | 0.00 | 0.00 | 93 | 1023.9 |
| 20260830040027 | 70 | 173 | 0.0 | 0.0 | 0.00 | 0.00 | 0.00 | 93 | 1023.8 |
| 20260830035516 | 70 | 173 | 0.0 | 0.0 | 0.00 | 0.00 | 0.00 | 93 | 1023.7 |
| 20260830035016 | 70 | 173 | 0.0 | 0.0 | 0.00 | 0.00 | 0.00 | 93 | 1023.7 |
| 20260830034524 | 71 | 173 | 0.0 | 0.0 | 0.00 | 0.00 | 0.00 | 93 | 1023.7 |
| 20260830034014 | 71 | 173 | 0.0 | 0.0 | 0.00 | 0.00 | 0.00 | 93 | 1023.6 |
| 20260830033508 | 71 | 173 | 0.0 | 0.0 | 0.00 | 0.00 | 0.00 | 93 | 1023.5 |
| 20260830033030 | 71 | 173 | 0.0 | 0.0 | 0.00 | 0.00 | 0.00 | 93 | 1023.5 |
| 20260830032507 | 71 | 173 | 0.0 | 0.0 | 0.00 | 0.00 | 0.00 | 92 | 1023.5 |
| 20260830032013 | 71 | 173 | 0.0 | 0.0 | 0.00 | 0.00 | 0.00 | 92 | 1023.4 |
| 20260830031530 | 71 | 173 | 0.0 | 0.0 | 0.00 | 0.00 | 0.00 | 92 | 1023.4 |
| 20260830031006 | 71 | 173 | 0.0 | 0.0 | 0.00 | 0.00 | 0.00 | 92 | 1023.3 |
| 20260830030511 | 71 | 173 | 0.0 | 0.0 | 0.00 | 0.00 | 0.00 | 92 | 1023.2 |
| 20260830030038 | 71 | 173 | 0.0 | 0.0 | 0.00 | 0.00 | 0.00 | 91 | 1023.2 |
| 20260830025508 | 72 | 173 | 0.0 | 0.0 | 0.00 | 0.00 | 0.00 | 91 | 1023.2 |
| 20260830025009 | 72 | 173 | 0.0 | 0.0 | 0.00 | 0.00 | 0.00 | 91 | 1023.2 |
| 20260830024527 | 72 | 173 | 0.0 | 0.0 | 0.00 | 0.00 | 0.00 | 91 | 1023.2 |
| 20260830024008 | 72 | 173 | 0.0 | 0.0 | 0.00 | 0.00 | 0.00 | 91 | 1023.1 |
| 20260830023510 | 72 | 173 | 0.0 | 0.0 | 0.00 | 0.00 | 0.00 | 91 | 1023.1 |
| 20260830023033 | 72 | 173 | 0.0 | 0.0 | 0.00 | 0.00 | 0.00 | 91 | 1023.1 |
| 20260830022505 | 72 | 173 | 0.0 | 0.0 | 0.00 | 0.00 | 0.00 | 91 | 1023.1 |
| 20260830022015 | 72 | 173 | 0.0 | 1.0 | 0.00 | 0.00 | 0.00 | 90 | 1023.0 |
| 20260830021528 | 73 | 173 | 0.0 | 4.0 | 0.00 | 0.00 | 0.00 | 90 | 1023.0 |
| 20260830021005 | 73 | 173 | 0.0 | 4.0 | 0.00 | 0.00 | 0.00 | 90 | 1023.1 |
| 20260830020516 | 73 | 161 | 0.0 | 0.0 | 0.00 | 0.00 | 0.00 | 90 | 1023.1 |
| 20260830020038 | 73 | 161 | 0.0 | 0.0 | 0.00 | 0.00 | 0.00 | 89 | 1023.1 |
| 20260830015507 | 73 | 161 | 0.0 | 0.0 | 0.00 | 0.00 | 0.00 | 89 | 1023.1 |
| 20260830015013 | 73 | 161 | 0.0 | 0.0 | 0.00 | 0.00 | 0.00 | 89 | 1023.0 |
| 20260830014531 | 73 | 161 | 0.0 | 0.0 | 0.00 | 0.00 | 0.00 | 88 | 1022.8 |
| 20260830014013 | 74 | 161 | 0.0 | 0.0 | 0.00 | 0.00 | 0.00 | 88 | 1022.7 |